Temp
23 23 22 21 21 23 22 22 22 20 20 21 21 20 19 19 19 19 19 19 19 18 18 18 18 18 18 18 18 17 18 17 17 18 18 18 17 18 18 17 18 17 17
24 24 23 22 22 21 23 22 22 22 20 21 21 21 21 19 19 19 19 18 18 20 19 18 19 18 18 18 18 18 18 18 18 17 18 18 17 17 18 17 18 18 17
25 25 24 23 22 22 22 22 21 21 22 20 20 21 20 19 19 19 20 19 19 19 20 19 18 18 18 18 17 17 17 17 17 17 17 17 17 17 18 18 18 17 18
27 26 25 24 24 23 22 22 22 21 21 20 20 19 19 19 19 19 19 19 19 19 19 18 18 18 17 18 17 17 17 17 17 16 16 17 17 17 17 17 18 18 18
27 27 26 25 24 24 23 22 21 21 20 20 20 20 20 20 20 19 19 19 19 18 18 18 18 18 18 17 17 18 17 17 18 19 19 18 17 17 16 16 17 18 18
26 26 26 25 24 23 23 23 23 21 20 20 20 20 20 20 20 19 19 18 18 18 18 18 18 17 19 19 19 19 19 18 18 17 17 17 17 17 17 17 17 17 17
27 26 25 24 24 23 23 24 24 22 20 20 20 20 20 19 20 19 19 18 18 18 18 17 17 18 19 19 18 19 19 19 18 18 18 17 17 17 17 17 17 17 17
24 26 25 24 25 24 23 24 23 23 21 20 20 20 20 19 19 19 19 19 19 18 18 18 18 18 19 18 18 18 18 18 18 18 19 19 17 17 17 17 17 17 17
23 24 25 25 26 23 22 23 21 23 21 20 20 20 19 19 19 19 19 20 19 18 18 18 18 18 18 18 18 18 18 18 19 19 18 18 18 18 18 17 17 17 16
23 22 24 26 26 25 22 21 21 20 20 21 20 20 19 19 19 20 20 18 19 18 18 18 18 19 18 18 18 17 18 18 19 18 18 18 18 17 18 18 17 16 17
22 22 22 24 25 25 22 21 21 21 21 20 20 20 19 20 19 20 20 20 19 20 19 19 18 18 18 18 18 18 18 18 18 18 18 18 18 18 18 19 18 18 17
24 22 22 23 24 22 22 21 21 21 21 20 20 20 20 19 19 19 20 20 19 18 19 19 18 19 19 18 18 19 18 18 18 17 18 17 18 19 19 18 18 17 17
23 22 22 22 22 22 21 21 20 21 21 20 20 20 20 19 20 19 19 19 19 19 18 19 19 19 19 19 19 19 18 18 17 17 18 17 17 18 17 18 18 16 17
21 21 22 22 21 21 21 20 18 17 18 20 20 20 20 20 19 19 18 19 19 18 18 18 18 18 18 18 18 19 18 18 16 16 17 17 16 17 17 18 17 17 17
21 21 21 21 21 21 21 22 20 20 15 19 19 20 21 20 19 19 18 18 17 17 17 17 17 17 17 17 17 16 16 16 16 16 16 17 16 16 16 18 17 17 17
21 21 20 19 19 21 23 25 23 20 18 20 21 20 21 20 20 19 19 18 18 17 17 17 17 16 16 16 16 16 16 16 16 16 16 16 16 16 16 16 15 16 16
20 20 18 17 19 19 21 22 22 18 16 19 20 19 19 19 18 18 18 17 17 16 15 15 16 15 15 15 15 15 15 15 15 15 15 15 15 15 14 14 15 15 15
20 19 17 19 20 20 17 18 16 16 16 17 17 18 17 18 17 17 17 16 15 15 15 15 14 14 14 14 14 14 13 14 15 15 15 15 15 14 14 14 14 14 14
19 18 18 20 20 19 18 16 16 16 16 16 15 16 17 16 16 16 16 16 17 17 15 14 13 13 13 13 13 13 14 14 14 14 14 14 14 14 14 14 14 14 14
18 18 18 19 19 18 19 17 16 16 16 16 16 16 16 16 15 15 15 15 14 14 13 12 12 13 13 12 12 12 13 13 13 13 13 13 13 13 14 14 14 14 14
17 17 18 18 18 17 17 18 18 18 17 16 15 15 16 16 15 15 15 15 15 14 13 13 12 12 12 12 12 12 12 12 12 12 12 12 13 12 13 13 12 12 13
18 18 19 19 19 19 18 18 18 17 16 15 14 14 15 14 14 14 14 14 13 13 13 13 12 12 12 11 11 11 11 12 12 11 11 12 12 12 12 12 12 12 12
20 20 19 19 19 18 18 18 17 17 16 15 15 15 15 15 14 14 14 14 14 13 12 12 11 11 11 10 10 12 12 12 12 12 11 11 12 13 13 13 13 13 12
19 19 18 17 18 18 17 16 15 15 15 14 14 14 14 14 14 14 13 13 13 12 11 10 9 11 12 11 12 11 11 11 11 11 11 11 10 12 12 13 14 13 13
18 18 18 17 16 15 15 15 14 14 14 14 14 14 14 13 13 12 12 12 11 10 9 10 9 8 8 11 10 10 10 10 9 10 10 10 9 10 11 11 11 11 12
17 17 17 16 15 15 15 14 14 14 14 14 13 13 12 12 11 11 10 10 10 10 9 9 8 7 7 8 9 9 9 9 9 9 9 9 8 8 8 7 8 8 10
Height
1516 1519 1521 1523 1525 1527 1530 1532 1535 1538 1540 1541 1542 1544 1545 1546 1547 1547 1549 1549 1550 1551 1551 1552 1551 1551 1551 1552 1554 1556 1557 1558 1558 1559 1560 1562 1561 1564 1564 1565 1567 1568 1569
1512 1515 1517 1519 1521 1524 1525 1528 1530 1532 1534 1536 1537 1538 1539 1541 1542 1542 1544 1545 1545 1545 1546 1546 1547 1548 1548 1549 1550 1552 1554 1554 1554 1554 1555 1556 1556 1558 1559 1560 1561 1562 1563
1509 1511 1513 1515 1517 1519 1522 1524 1527 1527 1529 1531 1532 1532 1534 1536 1537 1538 1538 1540 1541 1542 1542 1543 1544 1545 1546 1547 1548 1549 1551 1552 1552 1551 1551 1552 1550 1551 1552 1553 1555 1556 1557
1505 1509 1510 1511 1514 1516 1518 1520 1522 1522 1523 1526 1528 1529 1530 1532 1533 1534 1535 1536 1538 1538 1539 1540 1541 1543 1544 1545 1546 1547 1548 1548 1549 1549 1548 1548 1547 1546 1546 1546 1547 1547 1549
1501 1504 1506 1508 1510 1512 1513 1514 1516 1519 1519 1522 1524 1526 1528 1529 1530 1531 1532 1533 1534 1535 1536 1537 1537 1539 1540 1542 1544 1545 1545 1545 1547 1546 1546 1543 1542 1541 1541 1540 1540 1542 1543
1495 1498 1501 1503 1506 1507 1508 1508 1511 1513 1516 1518 1520 1522 1525 1526 1528 1528 1529 1530 1531 1532 1533 1534 1535 1536 1537 1538 1540 1541 1542 1542 1542 1541 1541 1539 1537 1536 1536 1535 1534 1535 1536
1484 1491 1495 1496 1497 1501 1503 1504 1506 1508 1512 1514 1516 1518 1520 1522 1524 1525 1527 1529 1528 1529 1530 1531 1532 1535 1535 1536 1536 1537 1538 1538 1538 1538 1535 1535 1533 1533 1532 1531 1530 1530 1530
1481 1482 1487 1490 1492 1495 1498 1501 1502 1503 1506 1508 1512 1515 1516 1518 1519 1522 1524 1525 1528 1528 1529 1529 1530 1532 1533 1533 1534 1534 1534 1534 1534 1533 1531 1530 1530 1529 1529 1527 1526 1525 1524
1474 1474 1478 1482 1485 1490 1493 1496 1499 1499 1500 1504 1508 1510 1513 1516 1517 1518 1519 1521 1523 1525 1525 1525 1527 1527 1529 1529 1530 1532 1532 1533 1534 1530 1529 1528 1526 1526 1525 1523 1522 1521 1519
1467 1468 1472 1474 1480 1482 1488 1493 1497 1502 1500 1500 1505 1507 1508 1510 1512 1514 1515 1518 1521 1522 1522 1521 1522 1523 1525 1526 1527 1528 1527 1529 1530 1528 1526 1524 1522 1521 1520 1520 1519 1518 1517
1466 1469 1471 1470 1471 1477 1482 1489 1494 1496 1501 1498 1500 1503 1505 1505 1508 1510 1512 1513 1518 1520 1520 1519 1519 1519 1521 1522 1522 1522 1522 1524 1524 1523 1523 1522 1521 1519 1516 1515 1515 1515 1513
1461 1464 1466 1468 1469 1475 1475 1483 1490 1494 1499 1500 1498 1499 1503 1504 1505 1506 1508 1509 1512 1515 1515 1516 1515 1515 1516 1517 1517 1517 1517 1518 1518 1519 1519 1517 1516 1515 1514 1513 1510 1510 1510
1454 1456 1459 1459 1466 1471 1474 1481 1490 1495 1496 1499 1498 1499 1500 1499 1501 1505 1505 1505 1506 1508 1509 1509 1510 1511 1511 1512 1513 1513 1513 1513 1513 1513 1513 1511 1510 1512 1508 1508 1507 1502 1504
1447 1449 1453 1457 1462 1462 1464 1471 1478 1489 1497 1495 1493 1499 1500 1497 1497 1499 1501 1501 1502 1502 1503 1504 1504 1504 1504 1505 1506 1506 1506 1506 1507 1508 1507 1506 1505 1504 1502 1502 1501 1502 1500
1442 1445 1450 1452 1448 1449 1455 1458 1462 1460 1467 1493 1492 1495 1496 1497 1495 1496 1497 1497 1499 1499 1499 1500 1499 1500 1500 1501 1501 1502 1503 1503 1503 1504 1503 1502 1500 1500 1497 1496 1495 1495 1495
1436 1440 1442 1446 1447 1452 1454 1452 1457 1474 1500 1493 1489 1488 1490 1493 1493 1493 1492 1492 1494 1494 1496 1496 1496 1497 1498 1498 1498 1497 1498 1498 1498 1498 1497 1497 1497 1496 1496 1494 1491 1490 1488
1430 1432 1436 1445 1452 1461 1462 1462 1461 1478 1490 1490 1483 1484 1486 1488 1487 1487 1487 1489 1490 1494 1496 1495 1495 1495 1494 1495 1495 1496 1495 1493 1493 1493 1492 1491 1490 1489 1488 1487 1487 1487 1483
1419 1425 1433 1441 1450 1455 1463 1464 1479 1488 1488 1480 1481 1479 1487 1483 1484 1484 1485 1488 1491 1493 1493 1492 1492 1492 1491 1491 1491 1493 1492 1491 1490 1488 1487 1486 1485 1484 1484 1482 1482 1479 1479
1414 1424 1431 1435 1435 1448 1459 1483 1485 1482 1480 1483 1483 1477 1480 1481 1481 1482 1486 1489 1493 1496 1493 1492 1493 1493 1491 1490 1490 1491 1490 1489 1488 1486 1484 1483 1483 1482 1480 1478 1476 1476 1475
1417 1424 1430 1434 1435 1448 1454 1469 1478 1478 1477 1478 1479 1479 1475 1475 1482 1488 1491 1490 1492 1494 1491 1490 1490 1492 1491 1489 1489 1490 1491 1491 1489 1487 1483 1480 1478 1477 1477 1476 1473 1470 1469
1419 1425 1430 1435 1437 1449 1458 1470 1472 1472 1473 1478 1481 1476 1477 1481 1487 1491 1492 1493 1493 1496 1494 1493 1494 1495 1493 1490 1490 1491 1491 1491 1489 1489 1487 1481 1478 1477 1477 1474 1471 1468 1464
1423 1429 1434 1439 1445 1452 1458 1463 1464 1468 1474 1475 1477 1479 1480 1486 1489 1493 1493 1492 1495 1495 1494 1492 1495 1495 1494 1493 1492 1491 1489 1490 1490 1489 1486 1485 1481 1478 1476 1471 1469 1466 1464
1423 1429 1436 1442 1446 1449 1455 1460 1466 1471 1472 1473 1479 1482 1484 1488 1492 1494 1494 1495 1496 1495 1493 1494 1495 1494 1494 1494 1494 1489 1489 1488 1487 1485 1483 1482 1481 1477 1475 1471 1466 1464 1463
1427 1433 1438 1445 1450 1454 1457 1463 1467 1469 1473 1476 1480 1483 1487 1492 1494 1494 1496 1496 1496 1496 1494 1494 1493 1491 1491 1492 1492 1489 1485 1486 1484 1483 1481 1480 1477 1473 1471 1468 1465 1461 1457
1432 1437 1441 1446 1452 1455 1460 1464 1466 1470 1476 1481 1482 1487 1491 1492 1493 1495 1497 1498 1497 1495 1494 1492 1492 1491 1487 1487 1487 1484 1482 1482 1480 1479 1477 1475 1474 1472 1467 1462 1458 1454 1453
1438 1441 1446 1451 1457 1461 1464 1468 1472 1477 1480 1483 1487 1491 1492 1492 1493 1495 1496 1497 1496 1495 1494 1493 1491 1490 1485 1483 1483 1480 1479 1477 1474 1473 1470 1470 1468 1465 1461 1456 1452 1450 1449
Wind_Speed
25 25 24 24 24 26 26 27 26 22 21 23 25 23 19 18 19 19 21 20 18 16 19 20 18 17 18 14 15 15 18 18 21 21 17 17 20 17 18 19 26 32 32
25 26 24 23 23 23 23 23 23 23 23 25 25 24 22 19 16 18 19 18 19 17 16 17 17 14 13 13 12 15 16 16 18 19 17 17 19 21 25 22 23 22 26
23 24 24 24 24 24 23 22 22 23 24 21 22 23 22 21 20 18 18 18 19 19 16 15 12 13 12 9 10 9 8 9 11 14 15 16 20 23 21 24 26 26 24
23 24 25 25 25 23 23 22 21 23 23 22 22 22 21 21 20 18 17 17 18 16 13 12 12 11 12 10 10 9 11 11 11 14 15 16 15 17 23 22 21 23 29
26 26 27 26 24 23 23 23 21 22 21 20 20 21 20 19 21 19 17 15 15 13 12 11 11 12 12 12 9 12 11 8 11 13 17 18 18 18 20 21 27 24 25
30 29 26 28 25 27 25 23 21 21 19 18 19 19 20 17 16 18 15 12 13 12 11 10 12 13 13 13 14 14 15 16 17 15 15 16 18 18 18 19 20 27 28
30 35 32 31 30 29 27 24 22 21 19 20 19 19 18 16 18 21 17 13 12 12 13 12 12 11 14 13 13 14 16 17 18 18 19 15 15 15 16 18 19 22 26
30 35 36 34 30 28 27 25 23 22 21 20 18 17 16 15 17 19 17 16 14 14 12 13 12 13 12 14 11 16 15 13 16 18 17 14 11 15 15 16 17 21 24
31 36 38 36 32 28 26 26 24 24 22 20 18 18 18 14 17 15 16 17 17 17 15 15 13 13 12 18 18 15 16 16 16 21 21 20 20 17 16 17 16 17 19
34 35 37 34 31 31 26 24 22 20 20 18 16 15 17 14 15 14 14 13 13 13 15 18 19 20 18 21 22 18 19 16 15 18 22 20 16 17 17 16 15 16 18
25 24 31 34 31 32 26 23 22 22 20 20 18 17 15 14 15 12 14 14 14 15 16 18 16 17 17 19 21 21 21 16 20 19 17 17 17 18 19 21 19 17 18
25 27 26 27 24 25 26 24 22 21 21 19 18 15 13 14 14 15 14 14 14 17 16 17 18 20 19 20 22 23 24 23 23 18 20 18 18 18 19 20 20 20 18
21 26 27 24 25 27 25 20 18 18 18 17 15 13 12 12 11 13 13 13 15 18 19 21 20 20 20 20 22 23 23 24 24 21 21 23 18 18 20 22 23 21 21
25 30 29 30 31 32 32 28 19 14 20 17 14 11 9 8 7 9 9 10 13 14 15 18 22 22 22 21 21 22 23 24 22 20 20 19 19 21 24 23 24 23 24
22 27 32 41 46 44 38 34 16 24 32 10 9 8 7 6 11 13 10 12 12 14 15 15 15 14 14 13 14 13 15 15 15 15 17 17 17 17 19 20 21 23 25
27 31 33 33 36 33 30 25 13 22 30 28 16 12 12 16 16 16 12 10 9 6 5 7 7 8 8 8 11 13 15 16 16 18 17 16 17 18 19 18 19 23 25
29 33 31 20 27 10 12 7 9 38 36 32 19 12 11 8 7 6 5 5 4 3 1 3 3 5 6 7 9 11 14 17 17 19 20 21 22 22 20 20 20 21 23
35 36 30 27 11 13 13 2 28 36 23 17 16 12 6 3 3 4 5 7 6 3 1 3 4 5 5 6 8 10 11 12 14 13 13 14 15 15 17 16 17 17 19
33 29 26 26 17 10 16 23 19 17 15 15 10 11 9 9 10 11 12 9 3 3 5 4 4 4 5 5 6 9 11 11 11 11 11 13 14 15 17 16 18 18 20
27 26 30 27 21 30 20 20 22 17 14 15 11 12 18 16 12 8 8 9 8 6 7 7 7 6 6 7 8 7 10 10 10 10 10 12 13 14 16 18 19 21 22
27 24 17 18 22 24 24 23 19 16 19 16 11 15 14 13 12 10 9 10 8 7 7 9 9 8 6 6 6 8 9 11 9 10 12 12 9 11 13 14 16 16 16
25 26 24 24 23 23 22 18 17 19 16 15 16 16 14 13 12 12 11 11 9 6 7 8 7 7 9 9 9 9 8 8 8 10 15 15 16 15 16 14 14 14 14
25 26 25 24 22 25 18 18 17 16 17 17 15 14 15 14 13 10 11 10 10 8 7 6 7 7 6 7 7 9 10 10 11 13 13 13 15 15 18 18 17 19 20
25 24 22 23 22 22 21 22 20 20 18 16 17 18 15 14 13 11 8 8 5 5 6 8 7 5 5 6 10 11 12 14 15 17 17 18 16 17 20 22 21 23 19
23 24 23 22 22 25 23 22 24 23 22 22 21 18 14 11 9 7 6 4 4 5 5 6 4 4 8 13 14 15 17 18 20 22 23 22 18 20 20 21 24 27 23
23 24 24 24 23 27 29 27 25 22 20 18 16 14 12 11 9 7 6 5 5 4 4 4 5 9 12 16 18 19 21 22 22 22 23 20 17 19 19 20 21 22 23
Wind_Direction
207 211 213 218 221 225 226 232 233 228 226 237 231 241 246 251 250 249 249 257 257 264 263 265 273 271 276 266 245 244 250 254 260 275 261 250 244 236 240 241 238 236 238
208 206 212 215 218 220 225 228 231 235 232 237 242 244 244 243 249 247 250 246 255 260 272 269 274 271 271 263 253 245 257 263 267 270 265 252 243 254 258 251 248 243 238
211 210 208 212 215 216 223 224 228 232 234 228 237 237 240 240 241 246 253 249 252 262 266 263 260 252 252 246 250 259 273 269 272 279 279 277 261 253 260 253 247 246 246
213 215 216 214 219 221 221 223 220 230 231 226 227 240 238 238 244 249 246 247 251 258 253 248 245 241 241 242 245 251 246 260 280 277 283 280 275 276 258 256 255 254 248
212 216 220 221 219 221 224 222 221 220 232 226 228 231 244 234 238 240 250 244 244 245 249 246 246 240 240 232 227 252 264 277 282 288 291 290 283 274 266 266 257 258 253
211 214 216 224 217 218 219 227 223 216 218 223 219 229 229 228 239 246 243 238 237 240 242 243 228 255 251 250 250 251 255 263 275 284 292 282 289 284 286 272 264 251 256
222 214 212 220 221 218 222 224 219 215 209 214 212 221 229 227 228 243 246 234 250 246 236 229 239 240 274 279 263 262 263 267 276 283 287 282 283 298 289 283 272 263 260
221 218 217 220 221 216 219 221 215 211 204 206 209 210 224 234 227 237 238 227 223 237 234 244 231 237 238 254 249 263 275 288 290 293 298 296 281 276 280 287 283 274 273
220 222 222 221 221 212 211 217 215 208 197 200 202 208 211 216 244 246 235 232 221 233 246 243 242 252 245 251 248 248 260 265 272 279 286 289 284 282 283 283 277 281 276
220 218 219 219 221 212 209 213 209 210 199 192 199 212 216 210 241 244 236 225 237 250 256 255 254 235 235 252 255 251 255 255 265 270 280 290 302 295 287 277 276 276 283
224 220 220 215 215 215 204 207 209 204 211 190 201 206 218 216 227 239 237 235 227 243 248 250 254 264 261 254 260 260 260 250 252 264 271 273 277 278 278 298 295 295 279
239 241 215 214 204 201 200 200 202 205 207 209 200 200 218 223 220 234 238 242 239 243 252 251 257 259 260 261 260 262 261 261 259 263 269 270 271 270 269 287 295 277 281
234 228 211 208 194 201 187 185 198 212 209 219 208 209 213 217 230 241 242 242 242 250 260 264 265 267 266 266 269 267 266 263 255 255 263 267 264 265 272 264 260 263 279
227 222 206 189 177 176 175 172 175 344 269 222 209 216 217 221 214 235 240 239 242 247 258 267 267 268 268 267 267 271 266 262 257 263 268 264 269 261 261 266 269 278 284
212 205 195 190 187 182 180 184 180 358 325 225 208 199 195 222 204 234 246 251 249 252 258 262 270 265 261 257 263 260 263 261 266 268 268 270 272 266 266 265 263 271 278
203 197 186 183 179 181 180 189 257 278 265 247 225 218 222 232 244 256 268 267 274 279 272 272 287 276 266 273 268 268 264 265 258 262 261 266 272 274 281 287 283 283 284
197 191 187 177 176 178 196 300 218 226 225 227 213 223 226 229 238 254 262 267 269 264 279 276 301 283 290 290 293 296 289 282 282 281 279 274 272 284 282 278 279 276 277
195 196 170 161 147 140 129 105 223 205 191 174 175 172 190 179 160 120 101 64 27 36 266 259 276 305 334 337 328 322 315 302 305 303 304 297 294 295 290 284 288 290 287
207 180 177 168 153 225 156 202 191 169 159 155 141 126 118 112 103 95 102 85 101 91 69 40 16 15 352 350 338 327 322 323 321 315 313 312 309 304 298 300 293 291 297
168 170 175 172 171 189 197 196 174 154 138 123 109 110 95 85 78 91 98 96 82 69 66 65 62 44 34 24 10 357 344 336 330 323 326 330 325 320 315 303 297 293 288
160 157 164 148 138 153 157 162 156 143 135 125 136 130 120 126 121 111 97 89 82 79 81 78 58 53 47 39 43 19 8 347 348 346 338 335 328 324 320 314 315 310 302
142 142 144 145 146 150 146 140 132 139 132 125 117 129 124 113 106 101 93 85 80 65 63 58 53 40 31 28 21 15 9 356 332 338 340 336 333 325 323 319 320 317 311
140 140 138 139 137 136 136 141 143 141 131 125 127 120 114 112 110 104 95 88 83 87 62 75 59 43 42 24 4 337 337 329 324 318 319 315 316 315 315 314 318 317 313
132 133 132 130 134 135 130 132 130 130 128 123 123 121 112 113 110 96 90 74 62 83 46 55 43 7 329 321 315 313 314 311 310 307 306 308 310 305 305 310 307 316 309
128 128 129 126 122 122 123 122 121 117 115 116 114 115 114 104 102 99 90 81 56 38 16 352 19 17 332 309 310 312 310 307 307 305 304 304 310 307 306 299 298 300 305
121 124 125 124 124 120 117 118 116 118 115 113 115 113 107 99 92 87 71 65 60 28 34 10 6 352 323 307 314 313 310 309 308 307 307 312 310 310 307 304 304 302 297